Tracking 28518 objects as of 1-Mar-2024
HD Live streaming from Space Station
objects crossing your sky now

STARLINK-2258

Track STARLINK-2258 now!
10-day predictions
STARLINK-2258 is classified as:


NORAD ID: 47860
Int'l Code: 2021-021A
Perigee: 553.4 km
Apogee: 555.3 km
Inclination: 53.1 °
Period: 95.6 minutes
Semi major axis: 6925 km
RCS: Unknown
Launch date: March 14, 2021
Source: United States (US)
Launch site: AIR FORCE EASTERN TEST RANGE (AFETR)
Your satellite tracking list
Your tracking list is empty




NASA's NSSDC Master Catalog

Two Line Element Set (TLE):
1 47860U 21021A   24061.54079262  .00008418  00000-0  58331-3 0  9993
2 47860  53.0555 355.2981 0001341  93.0804 267.0338 15.06402199164698
Source of the keplerian elements: AFSPC